Location: Clanezzo
(45.7500°N, 9.6000°E)
Time: 04:15:52
(UTC+00:00)

Cosmos 1869 Rocket - Pass Details

Date: 12 May 2021
Orbit: 605 x 633 km, 82.5° (Epoch: 18 June)

Event Time Altitude Azimuth Distance (km) Brightness Sun altitude
Rises 20:48:37 0° 355° (N) 2,872 8.0 -17.5°
Reaches altitude 10° 20:50:54 10° 360° (N) 1,964 6.9 -17.8°
Maximum altitude 20:55:09 53° 78° (ENE) 745 3.8 -18.2°
Enters shadow 20:56:21 40° 129° (SE) 907 3.9 -18.3°
